COSMOS 2251 DEB, 33839

Orbit data source: Space-Track

COSMOS 2251 DEB, 33839 is space debris in LEO originally from a launch on Wed, 16 Jun 1993 UTC launched from the Plesetsk Missile And Space Complex (PKMTR). The debris from Iridium 33, an American commercial communications satellite, has been tracked extensively since its accidental collision with the defunct Russian satellite Cosmos 2251 in 2009. This event, occurring at high speed in low Earth orbit (LEO), generated thousands of pieces of space debris, significantly increasing the risk of further collisions. The Iridium 33 debris cloud has impacted space traffic management and orbital debris mitigation strategies, making it a subject of ongoing study in space situational awareness.

Loading next visibility...
Identifier
33839, 1993-036CG
Orbit
LEO
Country
Flag of CISCIS
Related business
Manufacturer
Unknown
Mission
Spacecraft
Bus & Motor
Unknown
Mass
Unknown
Launch date (UTC)
1993-06-16 (33 years ago)
Launch vehicle
Unknown
Launch site
Plesetsk Missile And Space Complex (PKMTR)
Object type
Payload
Rocket body
Debris
Shape & HBR
Unknown shape, 0.2 m
Radar Cross Section
Medium (>0.1 m² and <1 m²)

Expand to show TLE details & history
Last TLE update: 18 hours ago

TLE from 18 hours ago
0 COSMOS 2251 DEB
1 33839U 93036CG  26206.27412324  .00000820  00000-0  15131-3 0  9992
2 33839  74.0395 134.8010 0084134 190.9244 329.7668 14.64979443928676
Epoch: 2026-07-25T06:34Z
TLE epoch observation values (Epoch: 2026-07-25T06:34:44.247Z)
Latitude
19.01026°
Longitude
-92.4961°
Altitude
628.125 km
Speed
7.574 km/s
True Right ascension
20h 36m 42s
True Declination
18° 54' 10"
Sunlit
Object was in full shadow at epoch
Visualization orbit readout
Latitude
Unknown
Longitude
Unknown
Altitude
Unknown
Speed
Unknown
Apparent Right ascension
Unknown
Apparent Declination
Unknown
Sunlit
N/A
Visualization observer readout
Local Sidereal Time
14:08:13
Azimuth
Unknown
Elevation
Unknown
Doppler factor
Unknown
Orbital elements
Apogee altitude
734.071 km
Perigee altitude
615.394 km
Semi-major axis
7,052.87 km
Eccentricity
0.00841
Inclination
74.0395°
RAAN
134.801°
Arg. of periapsis
190.9244°
True anomaly
329.27691°
Mean anomaly
329.7668°
Eccentric anomaly
329.5223°
Mean motion
3.66433 °/min
Orbital period
98.24 mins
BSTAR
0.00015131

Documentation

Showing up to 5 results
|